Flag for Saint Lucia Weather past 2 weeks in Castries, Saint Lucia

Now
77 °F

Passing clouds.


Feels Like: 79 °F
Forecast: 78 / 82 °F
Wind: 10 mph from East

Location: Vigie

Current Time: Mar 30, 2015 at 12:55:08 AM

Latest Report: Mar 29, 2015 at 10:00 PM


Visibility: N/A

Pressure: 30.04 "Hg

Humidity: 74%

Dew point: 68 °F

Location of CastriesLocation

Historic Weather in Castries — Graph

°F

Castries temperature yesterday

Maximum temperature yesterday: 82 °F (at 9:00 AM)
Minimum temperature yesterday: 77 °F (at 6:00 AM)
Average temperature yesterday: 80 °F

Past Weeks' High & Low Weather Summary

 TemperatureHumidityPressure
High102 °F (Mar 20, 11:00 AM)100% (Mar 22, 8:00 AM)30.12 "Hg (Mar 22, 8:00 AM)
Low43 °F (Mar 25, 8:00 AM)37% (Mar 20, 11:00 AM)29.89 "Hg (Mar 16, 4:00 PM)
Average80 °F72%30.00 "Hg
* Reported Mar 15 6:00 AM — Mar 29 10:00 PM, Castries, Weather by CustomWeather, © 2015

Note: Actual official high and low records may vary slightly from our data, if they occured in-between our weather recording intervals... More about our weather records

Advertising

Castries weather history for previous 24 hours

 ConditionsComfort  
Time TempWeatherWind HumidityBarometerVisibility
10:00 PM
Sun, Mar 29
77 °FPassing clouds.10 mph74%30.04 "HgN/A
9:00 PM77 °FPassing clouds.8 mph74%30.04 "HgN/A
8:00 PM79 °FPassing clouds.9 mph70%30.04 "HgN/A
7:00 PM79 °FPassing clouds.7 mph70%30.04 "HgN/A
6:00 PM79 °FBroken clouds.7 mph70%30.01 "HgN/A
5:00 PM79 °FPartly sunny.12 mph70%29.98 "HgN/A
4:00 PM81 °FBroken clouds.13 mph66%30.01 "HgN/A
3:00 PM81 °FScattered clouds.16 mph66%30.01 "HgN/A
2:00 PM81 °FPartly sunny.13 mph70%30.04 "HgN/A
1:00 PM82 °FPartly sunny.12 mph66%30.07 "HgN/A
12:00 PM82 °FSprinkles. Broken clouds.14 mph66%30.09 "Hg4 mi
11:00 AM82 °FPartly sunny.15 mph58%30.09 "HgN/A
10:00 AM81 °FSprinkles. Broken clouds.15 mph70%30.09 "HgN/A
9:00 AM82 °FPassing clouds.14 mph58%30.09 "HgN/A
8:00 AM81 °FPassing clouds.17 mph66%30.07 "HgN/A
7:00 AM79 °FPassing clouds.10 mph70%30.07 "HgN/A
6:00 AM77 °FPassing clouds.12 mph79%30.04 "HgN/A
Weather by CustomWeather, © 2015

See weather overviewHow to use our weather pages